Location: A�t �Alizem
(31.2076°N, 8.7872°W)
Time: 05:06:59
(UTC+00:00)

Envisat - Pass Details

Date: 30 September 2021
Orbit: 764 x 766 km, 98.2° (Epoch: 23 October)

Event Time Altitude Azimuth Distance (km) Brightness Sun altitude
Rises 05:54:18 0° 7° (N) 3,232 6.4 -8.1°
Reaches altitude 10° 05:56:38 10° 4° (N) 2,303 5.6 -7.6°
Maximum altitude 06:01:37 62° 285° (WNW) 859 3.0 -6.5°
Drops below altitude 10° 06:06:36 10° 205° (SSW) 2,290 5.2 -5.5°
Sets 06:08:55 0° 202° (SSW) 3,213 6.0 -5.0°
